www.pogodaiklimat.ru
ПОГОДА в Гурлене

Архив погоды в Гурлене (Хорезмская область, Узбекистан)

Время
и дата
02:30 28.05
02:40 28.05
03:00 28.05
03:10 28.05
03:20 28.05
03:50 28.05
04:00 28.05
04:10 28.05
04:20 28.05
04:30 28.05
04:50 28.05
05:10 28.05
05:20 28.05
05:30 28.05
06:00 28.05
06:10 28.05
06:30 28.05
06:50 28.05
07:00 28.05
07:20 28.05
07:30 28.05
07:40 28.05
07:50 28.05
08:00 28.05
08:20 28.05
08:40 28.05
08:50 28.05
09:00 28.05
09:10 28.05
09:20 28.05
09:40 28.05
09:50 28.05
10:00 28.05
10:10 28.05
10:20 28.05
10:30 28.05
10:50 28.05
11:00 28.05
11:10 28.05
11:20 28.05
11:40 28.05
11:50 28.05
12:00 28.05
12:10 28.05
12:30 28.05
12:40 28.05
13:10 28.05
13:30 28.05
13:40 28.05
13:50 28.05
14:10 28.05
14:30 28.05
14:40 28.05
14:50 28.05
15:00 28.05
15:20 28.05
15:30 28.05
15:40 28.05
15:50 28.05
16:00 28.05
16:20 28.05
16:30 28.05
16:50 28.05
17:00 28.05
17:20 28.05
17:40 28.05
18:00 28.05
18:20 28.05
18:40 28.05
18:50 28.05
19:00 28.05
19:10 28.05
19:20 28.05
19:30 28.05
19:50 28.05
20:00 28.05
20:10 28.05
20:20 28.05
20:30 28.05
20:40 28.05
21:00 28.05
21:10 28.05
21:20 28.05
21:40 28.05
21:50 28.05
22:10 28.05
22:20 28.05
22:30 28.05
22:40 28.05
22:50 28.05
23:00 28.05
23:10 28.05
23:20 28.05
23:30 28.05
23:50 28.05
00:00 29.05
00:10 29.05
00:20 29.05
00:30 29.05
00:40 29.05
01:00 29.05
01:10 29.05
01:20 29.05
01:30 29.05
01:40 29.05
01:50 29.05
02:00 29.05
02:10 29.05
02:20 29.05
02:30 29.05
02:40 29.05
02:50 29.05
03:00 29.05
03:10 29.05
03:20 29.05
03:30 29.05
03:40 29.05
03:50 29.05
04:00 29.05
04:10 29.05
04:20 29.05
04:30 29.05
04:40 29.05
04:50 29.05
05:00 29.05
05:10 29.05
05:20 29.05
05:30 29.05
05:40 29.05
05:50 29.05
06:00 29.05
06:10 29.05
06:20 29.05
06:30 29.05
06:40 29.05
06:50 29.05
07:00 29.05
07:10 29.05
07:20 29.05
07:30 29.05
07:40 29.05
07:50 29.05
08:00 29.05
08:20 29.05
Ветер
(напр.,м/с)
Видимость Явления Солнечная радиация
(Вт/м2)
Т
(С)
Тd
(С)
f
(%)
Тe
(С)
Тes
(С)
Комфортность P
(гПа)
Po
(гПа)
Тmin
(С)
Tmax
(С)
R
(мм)
СВ 2.4
{3.8}
+22.7 +2.3 26 +22 +22 комфорт 1016.6 1005.5 +22.9 +22.7
СВ 2.4
{4.0}
+22.6 +2.0 26 +22 +22 комфорт 1016.7 1005.6 +22.7 +22.5
СВ 2.8
{4.1}
+22.5 +2.2 26 +22 +22 комфорт 1016.7 1005.6 +22.6 +22.5
В 2.7
{5.1}
+22.5 +2.5 27 +22 +22 комфорт 1016.7 1005.6 +22.6 +22.5
В 3.3
{5.2}
+22.7 +1.6 25 +22 +22 комфорт 1016.7 1005.6 +22.7 +22.5
СВ 3.6
{5.4}
+22.0 +2.0 27 +22 +22 комфорт 1016.9 1005.8 +22.4 +22.0
СВ 3.9
{5.3}
+22.0 +1.8 26 +22 +22 комфорт 1016.9 1005.8 +22.1 +22.0
В 4.1
{5.6}
+22.0 +1.6 26 +22 +22 комфорт 1016.9 1005.8 +22.1 +22.0
В 4.0
{5.2}
+21.8 +1.9 27 +22 +22 комфорт 1016.9 1005.8 +22.0 +21.8
СВ 4.0
{5.5}
+21.8 +1.4 26 +21 +21 комфорт 1016.9 1005.8 +21.8 +21.7
СВ 3.9
{5.5}
+21.5 +1.7 27 +21 +21 комфорт 1016.9 1005.8 +21.8 +21.4
В 3.7
{4.9}
+21.0 +1.8 28 +21 +21 комфорт 1017.0 1005.9 +21.4 +21.0
СВ 3.7
{4.9}
+20.7 +2.0 29 +21 +21 комфорт 1017.1 1006.0 +21.0 +20.7
СВ 3.2
{5.1}
+20.2 +2.5 31 +21 +21 комфорт 1017.2 1006.1 +20.8 +20.2
СВ 3.0
{4.2}
+20.0 +2.6 32 +21 +21 комфорт 1017.5 1006.4 +20.0 +19.5
СВ 2.7
{3.6}
+19.9 +3.3 33 +21 +21 комфорт 1017.6 1006.5 +20.0 +19.9
СВ 3.1
{4.8}
+20.7 +3.6 32 +22 +22 комфорт 1017.7 1006.6 +20.7 +20.1
СВ 3.5
{5.1}
+21.3 +3.7 31 +21 +21 комфорт 1017.9 1006.8 +21.3 +20.9
СВ 4.7
{6.6}
+21.5 +3.4 30 +22 +22 комфорт 1018.0 1006.9 +21.7 +21.3
СВ 4.4
{6.3}
+21.5 +3.7 31 +22 +22 комфорт 1018.2 1007.1 +21.5 +21.2
СВ 4.1
{5.7}
+22.5 +4.5 31 +23 +23 комфорт 1018.1 1007.0 +22.4 +21.5
В 3.5
{5.6}
+23.3 +4.5 30 +23 +23 комфорт 1018.1 1007.0 +23.2 +22.5
В 3.5
{5.3}
+23.6 +4.9 30 +23 +23 комфорт 1018.1 1007.0 +23.7 +23.3
В 4.1
{6.6}
+23.8 +4.2 28 +23 +23 комфорт 1018.2 1007.1 +23.8 +23.6
В 4.2
{7.5}
+24.1 +3.9 27 +24 +24 комфорт 1018.3 1007.2 +24.1 +23.8
В 3.5
{5.2}
+24.6 +3.9 26 +24 +24 комфорт 1018.5 1007.4 +24.6 +24.5
В 3.2
{6.3}
+25.8 +4.1 25 +25 +25 комфорт 1018.6 1007.5 +25.8 +24.6
В 4.8
{7.7}
+26.8 +3.9 23 +26 +26 жарко 1018.6 1007.5 +26.8 +25.8
В 5.1
{8.1}
+27.2 +2.7 21 +26 +26 жарко 1018.5 1007.4 +27.2 +26.8
В 5.5
{8.2}
+27.4 +2.9 21 +26 +26 жарко 1018.5 1007.4 +27.4 +27.2
В 5.6
{8.9}
+27.9 +2.5 19 +26 +26 жарко 1018.6 1007.5 +27.9 +27.6
В 5.6
{8.5}
+27.9 +2.9 20 +26 +26 жарко 1018.7 1007.6 +28.1 +27.7
В 5.9
{8.9}
+28.2 +2.8 20 +26 +26 жарко 1018.7 1007.6 +28.3 +27.9
В 5.8
{8.9}
+28.6 +2.8 19 +27 +27 жарко 1018.7 1007.6 +28.6 +28.2
В 5.7
{8.2}
+28.7 +1.8 18 +27 +27 жарко 1018.7 1007.6 +28.7 +28.4
В 5.4
{8.4}
+28.7 +2.4 18 +27 +27 жарко 1018.8 1007.7 +28.9 +28.6
СВ 5.6
{8.2}
+29.3 +2.1 17 +27 +27 жарко 1018.9 1007.8 +29.3 +28.9
СВ 6.0
{8.5}
+29.2 +2.1 18 +27 +27 жарко 1019.0 1007.9 +29.4 +29.1
СВ 6.2
{9.0}
+28.6 +2.6 19 +27 +27 жарко 1019.0 1007.9 +29.2 +28.6
В 5.5
{8.4}
+29.0 +2.6 18 +27 +27 жарко 1019.1 1008.0 +29.1 +28.4
В 5.1
{7.7}
+29.2 +2.6 18 +27 +27 жарко 1019.2 1008.1 +29.2 +28.9
СВ 4.9
{7.2}
+29.8 +2.9 18 +28 +28 жарко 1019.2 1008.1 +29.7 +29.2
В 4.9
{7.2}
+29.6 +3.1 18 +27 +27 жарко 1019.1 1008.0 +29.8 +29.2
В 4.9
{7.1}
+29.6 +2.7 18 +27 +27 жарко 1019.1 1008.0 +30.1 +29.6
В 4.4
{7.5}
+30.0 +2.8 18 +28 +28 жарко 1019.1 1008.0 +30.2 +29.7
В 5.1
{7.7}
+29.8 +2.8 18 +28 +28 жарко 1019.1 1008.0 +30.2 +29.8
В 4.2
{8.2}
+30.6 +1.9 16 +28 +28 жарко 1019.1 1008.0 +30.6 +30.1
В 3.5
{5.8}
+30.7 +2.3 16 +28 +28 жарко 1019.0 1007.9 +30.9 +30.3
В 4.4
{8.4}
+30.3 +2.3 17 +28 +28 жарко 1018.9 1007.8 +31.1 +30.3
В 3.7
{7.5}
+30.8 +2.7 17 +28 +28 жарко 1018.9 1007.8 +30.8 +30.2
В 4.5
{8.1}
+30.8 +1.7 16 +28 +28 жарко 1018.7 1007.6 +31.0 +30.8
СВ 4.1
{9.2}
+31.2 +3.0 17 +29 +29 жарко 1018.6 1007.5 +31.2 +30.6
СВ 3.6
{6.8}
+31.0 +2.7 17 +29 +29 жарко 1018.7 1007.6 +31.4 +30.9
В 3.3
{6.2}
+31.0 +2.0 16 +28 +28 жарко 1018.6 1007.5 +31.2 +30.8
СВ 4.3
{7.1}
+30.9 +1.7 16 +28 +28 жарко 1018.6 1007.5 +31.2 +30.7
В 3.8
{6.8}
+30.9 +1.5 15 +28 +28 жарко 1018.6 1007.5 +31.1 +30.5
В 3.8
{6.5}
+31.0 +1.1 15 +28 +28 жарко 1018.6 1007.5 +31.2 +30.8
В 3.0
{5.6}
+31.3 +3.5 17 +29 +29 жарко 1018.5 1007.4 +31.5 +30.8
СВ 3.2
{7.5}
+30.9 +0.9 15 +28 +28 жарко 1018.4 1007.3 +31.3 +30.8
В 3.3
{6.8}
+31.3 +1.6 15 +29 +29 жарко 1018.4 1007.3 +31.3 +30.9
СВ 5.0
{8.4}
+30.6 +3.2 18 +28 +28 жарко 1018.4 1007.3 +30.9 +30.5
СВ 3.5
{6.6}
+30.8 +0.7 14 +28 +28 жарко 1018.4 1007.3 +31.0 +30.4
СВ 4.2
{7.5}
+30.4 +3.2 18 +28 +28 жарко 1018.3 1007.2 +30.7 +30.4
СВ 4.2
{8.2}
+30.4 +4.0 19 +28 +28 жарко 1018.3 1007.2 +30.6 +30.3
СВ 5.0
{8.0}
+30.1 +3.8 19 +28 +28 жарко 1018.2 1007.1 +30.7 +30.1
СВ 4.4
{6.6}
+30.2 +3.7 19 +28 +28 жарко 1018.1 1007.0 +30.3 +30.0
СВ 4.0
{7.4}
+30.1 +1.1 15 +27 +27 жарко 1018.1 1007.0 +30.4 +30.0
СВ 4.3
{6.5}
+29.7 +2.8 18 +28 +28 жарко 1018.0 1006.9 +29.9 +29.7
СВ 4.1
{6.2}
+29.2 +1.4 17 +27 +27 жарко 1018.0 1006.9 +29.5 +29.1
СВ 4.4
{6.0}
+29.2 +2.2 18 +27 +27 жарко 1017.9 1006.8 +29.3 +29.2
СВ 4.2
{6.7}
+29.0 +2.8 19 +27 +27 жарко 1018.0 1006.9 +29.3 +29.0
СВ 4.5
{8.2}
+28.7 +3.6 20 +27 +27 жарко 1018.1 1007.0 +29.0 +28.7
СВ 4.6
{7.8}
+28.3 +3.4 20 +27 +27 жарко 1018.2 1007.1 +28.7 +28.3
СВ 5.6
{8.3}
+27.9 +3.6 21 +26 +26 жарко 1018.2 1007.1 +28.3 +27.9
СВ 5.0
{8.1}
+27.1 +4.3 23 +26 +26 жарко 1018.3 1007.2 +27.6 +27.1
СВ 5.3
{8.5}
+26.8 +3.7 23 +26 +26 жарко 1018.3 1007.2 +27.1 +26.8
СВ 5.9
{9.3}
+26.2 +3.8 23 +25 +25 комфорт 1018.4 1007.3 +26.8 +26.2
СВ 5.2
{8.1}
+25.9 +3.8 24 +25 +25 комфорт 1018.5 1007.4 +26.2 +25.9
СВ 5.4
{9.0}
+25.6 +3.7 24 +25 +25 комфорт 1018.6 1007.5 +25.9 +25.6
СВ 5.4
{8.3}
+25.3 +4.0 25 +24 +24 комфорт 1018.7 1007.6 +25.7 +25.3
СВ 5.0
{7.5}
+24.9 +3.0 24 +24 +24 комфорт 1018.9 1007.8 +25.1 +24.9
СВ 5.0
{8.2}
+24.6 +3.1 25 +24 +24 комфорт 1018.9 1007.8 +24.9 +24.6
СВ 4.8
{7.0}
+24.2 +2.6 24 +23 +23 комфорт 1019.0 1007.9 +24.6 +24.2
СВ 4.8
{7.0}
+23.8 +2.6 25 +23 +23 комфорт 1019.1 1008.0 +24.0 +23.8
СВ 5.4
{8.1}
+23.8 +2.4 25 +23 +23 комфорт 1019.1 1008.0 +24.0 +23.8
СВ 5.6
{8.0}
+23.8 +2.5 25 +23 +23 комфорт 1019.2 1008.1 +24.0 +23.8
СВ 5.3
{8.8}
+23.4 +2.7 26 +23 +23 комфорт 1019.4 1008.2 +23.8 +23.4
СВ 5.9
{8.9}
+23.3 +2.5 26 +23 +23 комфорт 1019.4 1008.2 +23.5 +23.3
СВ 5.5
{8.0}
+23.1 +2.4 26 +23 +23 комфорт 1019.4 1008.2 +23.3 +23.0
СВ 5.2
{7.8}
+22.9 +2.4 26 +22 +22 комфорт 1019.4 1008.2 +23.1 +22.9
В 4.7
{7.9}
+22.5 +2.4 27 +22 +22 комфорт 1019.5 1008.3 +22.9 +22.4
СВ 4.4
{5.9}
+22.2 +2.4 27 +22 +22 комфорт 1019.5 1008.3 +22.5 +22.2
СВ 4.4
{6.4}
+22.1 +2.1 27 +22 +22 комфорт 1019.5 1008.3 +22.2 +22.1
В 4.5
{6.6}
+22.1 +2.0 27 +22 +22 комфорт 1019.6 1008.4 +22.2 +22.0
СВ 4.5
{7.0}
+21.6 +2.1 27 +21 +21 комфорт 1019.5 1008.3 +21.8 +21.5
В 4.0
{7.0}
+21.5 +1.8 27 +21 +21 комфорт 1019.6 1008.4 +21.6 +21.5
СВ 3.9
{5.4}
+21.1 +2.1 28 +21 +21 комфорт 1019.6 1008.4 +21.5 +21.1
СВ 4.1
{5.9}
+21.0 +1.6 28 +21 +21 комфорт 1019.6 1008.4 +21.1 +20.9
СВ 3.8
{5.6}
+20.8 +1.7 28 +21 +21 комфорт 1019.6 1008.4 +21.0 +20.8
СВ 4.0
{6.2}
+20.7 +1.9 29 +21 +21 комфорт 1019.6 1008.4 +20.9 +20.7
СВ 3.9
{6.6}
+20.3 +1.1 28 +21 +21 комфорт 1019.6 1008.4 +20.6 +20.3
В 3.3
{5.3}
+19.9 +1.5 29 +20 +20 1019.7 1008.5 +20.3 +20.0
СВ 3.4
{5.3}
+19.6 +1.5 30 +20 +20 1019.6 1008.4 +19.9 +19.6
СВ 3.7
{5.5}
+19.4 +1.1 29 +20 +20 1019.6 1008.4 +19.6 +19.4
В 4.0
{6.4}
+19.7 0.0 27 +20 +20 1019.6 1008.4 +19.7 +19.2
СВ 4.3
{6.4}
+19.5 -0.1 27 +20 +20 1019.6 1008.4 +19.7 +19.5
СВ 4.1
{6.8}
+19.0 +0.3 29 +19 +19 1019.6 1008.4 +19.5 +19.0
СВ 3.3
{4.7}
+18.8 -0.1 28 +19 +19 1019.7 1008.5 +19.0 +18.8
В 2.8
{4.1}
+18.5 -0.2 28 +19 +19 1019.7 1008.5 +18.8 +18.5
СВ 3.5
{4.7}
+18.4 -0.6 28 +18 +18 1019.7 1008.5 +18.5 +18.3
В 3.5
{5.0}
+18.4 -0.6 28 +18 +18 1019.8 1008.6 +18.4 +18.4
В 3.8
{5.8}
+18.3 -0.5 28 +18 +18 1019.8 1008.6 +18.4 +18.3
В 3.7
{5.5}
+18.2 -0.6 28 +18 +18 1019.8 1008.6 +18.3 +18.0
В 4.3
{5.7}
+18.0 -0.6 28 +18 +18 1019.8 1008.6 +18.2 +18.0
В 3.8
{5.2}
+17.8 -0.7 29 +18 +18 1019.8 1008.6 +18.0 +17.8
В 3.4
{4.8}
+17.6 -0.6 29 +18 +18 1019.7 1008.5 +17.8 +17.6
В 3.4
{4.5}
+17.2 -0.6 30 +17 +17 1019.7 1008.5 +17.6 +17.2
В 3.3
{6.3}
+17.2 -0.7 30 +17 +17 1019.7 1008.5 +17.4 +17.2
В 2.8
{4.2}
+16.9 -0.2 31 +17 +17 1019.7 1008.5 +17.2 +16.9
В 2.5
{3.7}
+16.6 -0.1 32 +17 +17 1019.7 1008.5 +16.9 +16.6
В 2.6
{4.0}
+16.6 -0.2 32 +17 +17 1019.7 1008.5 +16.7 +16.6
В 3.0
{4.2}
+16.6 -0.1 32 +16 +16 1019.7 1008.5 +16.6 +16.6
В 3.4
{4.3}
+16.2 +0.1 34 +16 +16 1019.7 1008.5 +16.6 +16.2
В 3.7
{5.4}
+16.0 -0.1 33 +15 +15 1019.7 1008.5 +16.2 +16.0
В 4.0
{5.3}
+16.0 -0.8 32 +15 +15 1019.7 1008.5 +16.1 +16.0
В 3.8
{5.1}
+15.9 -0.9 32 +15 +15 1019.8 1008.6 +16.0 +15.9
В 3.5
{5.0}
+15.8 -0.8 32 +15 +15 1019.8 1008.6 +15.9 +15.8
В 3.4
{4.9}
+16.0 -0.9 32 +16 +16 1019.8 1008.6 +16.0 +15.8
В 3.3
{4.7}
+15.9 -0.5 33 +16 +16 1019.9 1008.7 +16.0 +15.9
В 3.0
{4.7}
+16.0 -0.6 32 +16 +16 1019.9 1008.7 +16.0 +15.9
В 3.1
{4.8}
+16.1 -0.7 32 +16 +16 1019.9 1008.7 +16.1 +16.0
В 3.2
{4.9}
+16.3 -0.9 31 +16 +16 1020.0 1008.8 +16.3 +16.1
В 3.0
{4.9}
+16.6 -0.8 31 +16 +16 1020.0 1008.8 +16.6 +16.3
В 3.0
{4.6}
+16.8 -0.7 30 +17 +17 1020.0 1008.8 +16.8 +16.6
В 2.9
{4.3}
+17.1 -0.7 30 +17 +17 1020.0 1008.8 +17.1 +16.8
В 3.3
{5.2}
+17.4 -0.6 29 +17 +17 1019.9 1008.7 +17.4 +17.1
В 2.9
{5.5}
+17.7 -0.5 29 +18 +18 1020.0 1008.8 +17.7 +17.4
В 3.3
{5.1}
+17.9 -0.7 28 +18 +18 1019.9 1008.7 +18.0 +17.7
В 3.4
{5.4}
+18.3 -0.2 29 +18 +18 1019.9 1008.7 +18.3 +17.9
В 3.4
{5.2}
+18.4 0.0 29 +19 +19 1019.9 1008.7 +18.4 +18.3
В 3.2
{5.1}
+18.8 -0.1 28 +19 +19 1020.0 1008.8 +18.8 +18.4
В 3.0
{4.8}
+19.2 +0.3 28 +20 +20 1020.1 1008.9 +19.2 +18.8
В 3.3
{5.5}
+19.7 +0.2 27 +20 +20 1020.1 1008.9 +19.7 +19.2
В 4.1
{6.6}
+20.7 -0.8 24 +21 +21 комфорт 1020.2 1009.0 +20.7 +20.5
Местоположение метеостанции Гурлен (Хорезмская область, Узбекистан): широта 41.85 долгота 60.35 высота над уровнем моря 0 м.
В архиве по умолчанию представлена погода в Гурлене за последние 1-2 суток. Обновление информации о фактической погоде в базе происходит ежечасно! Архивные данные за месяц целиком и за предыдущие месяцы Вы можете получить, выбрав интересующий диапазон дат из раскрывающегося списка и нажав кнопку "Ввод!".
*Определитесь, кто Вы:
Внимание! Время в таблицах - местное (без учета летнего времени). Для получения всемирного времени необходимо вычесть поправку, которая равна 5 ч.
Смотрите также архив погоды на ближайших метеорологических станциях:
Партнеры нашего сайта:      
Пояснения к столбцам:
  • Ветер - указаны скорость ветра в м/с - средняя за 10 мин, порывы в срок и между сроками (в фигурных скобках) и направление, откуда дует ветер: С - северный,
  • СВ - северо-восточный, В - восточный, ЮВ - юго-восточный, Ю - южный, ЮЗ - юго-западный, З - западный, СЗ - северо-западный.
  • Видимость - горизонтальная дальность видимости в метрах или километрах. При видимости от 1 до 10 км при отсутствии осадков обычно наблюдается дымка, при ухудшении видимости до 1 км и менее - туман. В сухую погоду видимость может ухудшаться дымом, пылью или мглою.
  • Явления - указаны атмосферные явления, наблюдавшиеся в срок или в последний час перед сроком.
  • Солнечная радиация - мощность потока солнечного излучения на поверхность земли и предметов в Вт/м2.
  • T - Температура воздуха - температура, измеренная на высоте 2 м над землей.
  • Td - Температура точки росы - температура, при понижении до которой содержащийся в воздухе водяной пар достигнет насыщения.
  • f - Относительная влажность воздуха - влажноcть воздуха, измеренная на высоте 2 м над землей.
  • Te - Эффективная температура - температура, которую ощущает одетый по сезону человек в тени. Характеристика душности погоды. При расчете учитывается влияние влажности воздуха и скорости ветра на теплоощущения человека.
  • Tes - Эффективная температура на солнце - температура, которую ощущает человек, с поправкой на солнечный нагрев. Характеристика знойности погоды. Зависит от высоты солнца над горизонтом, облачности и скорости ветра. Ночью, в пасмурную погоду, а также при ветре 12 м/с и более поправка равна нулю.
  • P - Атмосферное давление - приведенное к уровню моря атмосферное давление.
  • Po - Атмосферное давление - измеренное на уровне метеостанции атмосферное давление.
  • Tmin - Минимальная температура - минимум температуры воздуха на высоте 2 м над землей.
  • Tmax - Максимальная температура - максимум температуры воздуха на высоте 2 м над землей.
  • R - Количество осадков - Количество выпавших осадков за период времени, мм. При наведении курсора мыши на число - период времени, за который выпало указанное количество осадков.